Location: ??????
(41.3164°N, 22.6615°E)
Time: 17:19:55
(UTC+00:00)

CANX-2 - Pass Details

Date: 10 August 2022
Orbit: 591 x 608 km, 97.7° (Epoch: 01 October)

Event Time Altitude Azimuth Distance (km) Brightness Sun altitude
Rises 02:53:26 0° 2° (N) 2,846 ? -7.6°
Reaches altitude 10° 02:55:45 10° 353° (N) 1,942 ? -7.2°
Maximum altitude 02:59:32 34° 289° (WNW) 1,005 ? -6.6°
Drops below altitude 10° 03:03:20 10° 225° (SW) 1,939 ? -6.0°
Enters shadow 03:04:30 - 220° (SW) 2,388 ? -5.8°
